C/2019 LB7 ( Kleyna )

Japanese version
Home page
Updated on July 4, 2019

---------------------------------------------------------------------

* Profile

Discovery Date June 7, 2019
Magnitude 23.4 mag
Discoverer Jan Kleyna and Marco Micheli (Subaru Telescope at Mauna Kea)

* Orbital Elements

Epoch 2019 Mar. 18.0 TT = JDT 2458560.5                                         
T 2019 Mar. 26.85767 TT                                 MPCLINUX                
q   2.4788851            (2000.0)            P               Q                  
n   0.00518759     Peri.  335.74335     +0.88772901     +0.46010662             
a  33.0490347      Node     3.26334     +0.45417045     -0.88077928             
e   0.9249937      Incl.  164.23837     +0.07527552     -0.11193641             
P 190                                                                           
From 14 observations 2019 June 7-July 1, mean residual 0".1.                    

* Magnitudes Graph

        m1 = 16.5 + 5 log d + 10.0 log r

---------------------------------------------------------------------

The orbital elements are published on M.P.E.C. 2019-N32.
The magnitudes graphs are made with Comet for Windows.

---------------------------------------------------------------------

Copyright(C) Seiichi Yoshida (comet@aerith.net). All rights reserved.